カタログに戻る

KINEIS-1D

運用中通信SSO
NORAD 60082·PAYLOAD·🇫🇷 France

打ち上げ Jun 20, 2024 から Rocket Lab Launch Complex 1

Loading…

次のパス (今後24時間)

TLE

最新Source: Space-Track

元期: Sep 14, 2026, 12:08 UTC

1 60082U 24114D   26257.50616565  .00000399  00000-0  64741-4 0  9991
2 60082  97.9874 276.6730 0000132 143.4573 216.6645 14.76421704120308

AllMySatでKINEIS-1Dをリアルタイム追跡

Download on the App Store